DateTimeUTC,F1_A11,F1_S11,BsB_S11,BsG_S11,BsR_S11,BbsB_S11,BbsG_S11,BbsR_S11,BaB_A11,BaG_A11,BaR_A11,Tu_S11,T_S11,Uu_S11,U_S11,P_S11,T1_A11
2021-07-15T09:00:00Z,00000200,20000000,,,,,,,0000.18,0000.21,0000.22,17.8,24.4,08.1,05.4,0660.8,31.0
2021-07-15T09:01:00Z,00000200,20000000,,,,,,,-000.03,-000.24,-000.08,17.8,24.4,08.1,05.4,0660.8,31.0
2021-07-15T09:02:00Z,00000200,20000000,,,,,,,0000.26,0000.08,-000.06,17.8,24.4,08.1,05.4,0660.8,31.0
2021-07-15T09:03:00Z,00000200,60000000,,,,,,,-000.13,-000.13,-000.15,17.8,24.4,08.1,05.4,0660.8,31.0
2021-07-15T09:04:00Z,00000200,40000000,0000.45,0000.19,0000.24,0000.70,-000.04,0000.09,0000.14,0000.29,0000.47,17.8,24.2,08.0,05.4,0661.8,31.0
2021-07-15T09:05:00Z,00000200,00000000,0000.02,0000.12,0000.23,0000.28,0000.09,0000.40,-000.05,-000.46,0000.04,17.9,24.2,08.0,05.4,0661.8,31.0
2021-07-15T09:06:00Z,00000200,00000000,0000.33,0000.22,0000.08,-000.05,0000.14,-000.03,-000.14,0000.13,-000.30,17.9,24.2,08.0,05.4,0661.8,31.0
2021-07-15T09:07:00Z,00000200,00000000,0000.25,0000.31,0000.26,-000.19,0000.02,0000.22,0000.19,0000.12,-000.18,17.9,24.2,08.1,05.5,0661.7,31.0
2021-07-15T09:08:00Z,00000200,00000000,-000.06,-000.17,-000.09,-000.10,0000.05,-000.24,-000.05,0000.43,0000.23,17.9,24.2,08.0,05.4,0661.7,31.0
2021-07-15T09:09:00Z,00000200,00000000,0000.57,0000.14,0000.20,-000.28,0000.21,0000.02,-000.18,-000.31,0000.05,17.9,24.2,08.0,05.4,0661.7,31.0
2021-07-15T09:10:00Z,00000200,00000000,0000.03,-000.04,0000.01,0000.61,0000.08,0000.32,0000.25,0000.01,-000.16,17.9,24.2,08.1,05.5,0661.7,31.0
2021-07-15T09:11:00Z,00000200,00000000,0000.56,0000.34,0000.38,0000.30,0000.17,0000.29,-000.05,0000.11,0000.03,17.9,24.1,08.0,05.4,0661.7,31.0
2021-07-15T09:12:00Z,00000200,00000000,0000.25,0000.27,0000.11,-000.26,0000.03,0000.27,-000.03,-000.16,0000.00,17.9,24.1,08.1,05.5,0661.7,31.0
2021-07-15T09:13:00Z,00000200,00000000,0000.81,0000.09,0000.04,0000.21,0000.16,-000.05,-000.13,0000.01,-000.29,17.9,24.1,08.0,05.5,0661.7,31.0
2021-07-15T09:14:00Z,00000200,00000000,0000.24,0000.30,-000.02,0000.51,0000.13,0000.09,-000.17,-000.22,0000.15,17.9,24.1,08.1,05.5,0661.7,31.0
2021-07-15T09:15:00Z,00000200,00000000,0000.25,0000.20,0000.26,-000.18,-000.03,-000.03,0000.45,0000.10,0000.24,17.9,24.1,08.1,05.5,0661.7,31.0
2021-07-15T09:16:00Z,00000200,00000000,0000.80,-000.15,0000.13,0000.03,-000.01,-000.03,-000.51,0000.11,-000.20,17.9,24.1,08.0,05.5,0661.7,31.0
2021-07-15T09:17:00Z,00000200,00000000,0001.46,0000.31,0000.42,0000.32,-000.05,0000.20,0000.42,0000.12,0000.02,17.9,24.1,08.1,05.5,0661.8,31.0
2021-07-15T09:18:00Z,00000200,00000000,0000.49,0000.33,0000.50,-000.14,-000.19,0000.50,-000.09,-000.15,-000.04,17.9,24.1,08.0,05.5,0661.8,31.0
2021-07-15T09:19:00Z,00000200,00000000,0000.38,0000.25,0000.01,0000.54,0000.33,0000.13,-000.06,-000.10,0000.26,17.9,24.1,07.9,05.4,0661.9,31.0
2021-07-15T09:20:00Z,00000200,00000000,0000.24,0000.48,0000.13,-000.31,0000.05,0000.10,0000.14,-000.05,-000.05,17.9,24.1,07.8,05.4,0661.9,31.0
2021-07-15T09:21:00Z,00000200,00000000,0000.65,-000.02,0000.32,0000.21,-000.02,0000.13,-000.07,-000.07,-000.41,17.9,24.1,07.9,05.4,0661.9,31.0
2021-07-15T09:22:00Z,00000200,00000000,0000.42,0000.13,0000.13,0000.18,-000.08,0000.29,-000.17,-000.03,0000.30,17.9,24.1,07.8,05.3,0661.9,31.0
2021-07-15T09:23:00Z,00000200,00000000,0000.33,0000.35,0000.10,0000.44,-000.20,-000.01,0000.05,0000.39,0000.04,17.9,24.1,07.9,05.4,0661.9,31.0
2021-07-15T09:24:00Z,00000200,00000000,-000.42,0000.19,0000.42,-000.08,-000.01,0000.08,0000.06,-000.19,-000.07,17.9,24.1,07.9,05.4,0661.9,31.0
2021-07-15T09:25:00Z,00000200,00000000,0000.91,0000.09,0000.37,0000.17,0000.27,0000.20,-000.41,-000.46,-000.27,17.9,24.1,07.8,05.3,0661.8,31.0
2021-07-15T09:26:00Z,00000200,00000000,0000.27,0000.19,0000.22,0000.16,-000.07,0000.34,0000.01,-000.01,-000.03,17.9,24.0,07.8,05.3,0661.9,31.0
2021-07-15T09:27:00Z,00000200,00000000,0000.50,0000.22,0000.35,0000.77,0000.06,0000.10,0000.24,0000.32,0000.21,17.9,24.1,07.7,05.3,0661.9,31.0
2021-07-15T09:28:00Z,00000200,00000000,0001.28,-000.04,0000.00,-000.39,-000.22,0000.19,0000.04,-000.04,-000.07,17.9,24.1,07.7,05.3,0661.9,31.0
2021-07-15T09:29:00Z,00000200,00000000,0001.05,0000.28,0000.03,-000.02,-000.07,-000.19,-000.09,0000.14,-000.25,17.9,24.1,07.6,05.2,0661.9,31.0
2021-07-15T09:30:00Z,00000200,00000000,0000.65,0000.26,0000.18,0000.08,0000.11,0000.32,-000.03,-000.20,0000.22,17.8,24.1,07.7,05.2,0661.9,31.0
2021-07-15T09:31:00Z,00000200,00000000,-000.36,-000.14,0000.04,0000.40,-000.21,0000.26,-000.05,0000.14,-000.05,17.8,24.0,07.7,05.3,0661.8,31.0
2021-07-15T09:32:00Z,00000200,00000000,0000.53,0000.36,0000.34,0000.08,0000.01,0000.14,0000.35,-000.08,0000.35,17.8,24.0,07.7,05.3,0661.8,31.0
2021-07-15T09:33:00Z,00000200,00000000,0000.14,0000.30,0000.31,0000.68,0000.00,-000.02,-000.10,-000.07,-000.24,17.8,24.1,07.7,05.3,0661.9,31.0
2021-07-15T09:34:00Z,00000200,00000000,0000.63,0000.08,0000.32,0000.39,-000.03,-000.13,0000.10,-000.14,-000.32,17.8,24.0,07.8,05.3,0661.9,31.0
2021-07-15T09:35:00Z,00000200,00000000,0000.08,-000.29,0000.40,0000.01,0000.22,0000.11,-000.09,0000.22,0000.32,17.8,24.0,07.7,05.3,0661.9,31.0
2021-07-15T09:36:00Z,00000200,00000000,0001.15,-000.05,0000.29,-000.04,0000.18,0000.38,0000.08,-000.06,0000.02,17.8,24.0,07.7,05.3,0661.9,31.0
2021-07-15T09:37:00Z,00000200,00000000,0000.45,0000.30,0000.33,-000.04,-000.12,0000.11,0000.15,0000.09,0000.00,17.9,24.0,07.7,05.3,0661.9,31.0
2021-07-15T09:38:00Z,00000200,00000000,0000.12,0000.06,0000.23,-000.17,0000.24,-000.13,-000.22,-000.03,-000.21,18.0,24.1,07.7,05.3,0661.9,31.0
2021-07-15T09:39:00Z,00000200,00000000,0000.10,0000.29,0000.43,-000.06,0000.29,0000.32,0000.24,0000.25,0000.47,18.0,24.1,07.6,05.2,0661.9,31.0
2021-07-15T09:40:00Z,00000200,00000000,0000.29,0000.20,0000.38,-000.27,0000.14,0000.36,-000.08,-000.18,-000.06,18.0,24.1,07.5,05.2,0662.0,31.0
2021-07-15T09:41:00Z,00000200,00000000,0000.47,-000.14,0000.27,0000.22,-000.14,0000.30,-000.29,0000.10,-000.20,18.1,24.1,07.4,05.1,0662.0,31.0
2021-07-15T09:42:00Z,00000200,00000000,0000.75,0000.20,0000.13,0000.14,-000.21,0000.17,-000.17,-000.30,-000.41,18.0,24.1,07.5,05.2,0662.0,31.0
2021-07-15T09:43:00Z,00000200,00000000,0000.37,-000.02,0000.46,-000.09,-000.19,0000.24,0000.04,-000.04,0000.29,18.0,24.1,07.4,05.1,0662.0,31.0
2021-07-15T09:44:00Z,00000200,00000000,0000.72,0000.27,0000.11,0000.36,0000.06,0000.11,0000.16,0000.08,0000.09,18.0,24.1,07.5,05.2,0662.0,31.0
2021-07-15T09:45:00Z,00000200,00000000,0000.92,0000.34,-000.08,-000.31,-000.06,-000.24,-000.48,0000.04,-000.11,18.0,24.1,07.4,05.1,0662.1,31.0
2021-07-15T09:46:00Z,00000200,00000000,0000.79,0000.39,0000.38,0000.47,0000.23,-000.28,0000.42,0000.00,-000.02,18.0,24.1,07.5,05.1,0662.1,31.0
2021-07-15T09:47:00Z,00000200,00000000,-000.00,0000.20,0000.05,0000.11,0000.19,0000.31,0000.11,-000.04,0000.31,18.0,24.0,07.5,05.2,0662.1,31.0
2021-07-15T09:48:00Z,00000200,00000000,0000.39,0000.26,0000.33,0000.13,0000.15,-000.07,-000.10,-000.13,-000.17,17.9,24.1,07.5,05.2,0662.1,31.0
2021-07-15T09:49:00Z,00000200,00000000,0000.73,0000.18,0000.14,-000.39,-000.24,-000.09,0000.01,0000.27,-000.05,17.9,24.1,07.5,05.2,0662.1,31.0
2021-07-15T09:50:00Z,00000200,00000000,0000.56,0000.11,0000.28,0000.02,0000.08,-000.07,0000.02,-000.21,0000.10,18.0,24.1,07.5,05.2,0662.1,31.0
2021-07-15T09:51:00Z,00000200,00000000,0000.21,0000.15,0000.14,-000.52,0000.23,0000.20,-000.17,0000.02,-000.07,18.0,24.1,07.5,05.2,0662.0,31.0
2021-07-15T09:52:00Z,00000200,00000000,0000.36,0000.40,0000.28,-000.20,-000.11,0000.28,0000.17,-000.20,-000.10,18.0,24.1,07.5,05.2,0662.0,31.0
2021-07-15T09:53:00Z,00000200,00000000,0000.72,0000.26,0000.13,-000.14,-000.06,0000.12,0000.13,0000.51,0000.19,18.0,24.1,07.5,05.2,0662.0,31.0
2021-07-15T09:54:00Z,00000200,00000000,0000.01,0000.10,-000.08,-000.14,0000.10,0000.16,0000.01,-000.36,-000.13,17.9,24.1,07.5,05.2,0662.0,31.0
2021-07-15T09:55:00Z,00000200,00000000,0000.77,0000.54,0000.34,0000.21,0000.27,0000.00,-000.15,0000.09,0000.07,17.9,24.1,07.5,05.2,0662.0,31.0
2021-07-15T09:56:00Z,00000200,00000000,0000.98,0000.30,0000.13,0000.17,-000.19,-000.03,0000.18,0000.18,-000.05,17.9,24.1,07.5,05.1,0662.0,31.0
2021-07-15T09:57:00Z,00000200,40000000,,,,,,,0000.35,0000.06,0000.23,18.0,24.1,07.6,05.2,0661.9,31.0
2021-07-15T09:58:00Z,00000200,60000000,,,,,,,-000.42,-000.07,-000.31,17.8,24.2,07.5,05.1,0661.0,31.0
2021-07-15T09:59:00Z,00000200,20000000,,,,,,,-000.32,-000.07,0000.22,17.8,24.3,07.5,05.0,0661.0,31.0
